Time,TemperatureF,DewpointF,PressureIn,WindDirection,WindDirectionDegrees,WindSpeedMPH,WindSpeedGustMPH,Humidity,HourlyPrecipIn,Conditions,Clouds,dailyrainin,SoftwareType,DateUTC
2013-02-01 00:02:00,7.0,-1.0,30.22,West,275,16.0,21.0,69,0.00,,,0.00,,2013-02-01 06:02:00,
2013-02-01 00:11:00,7.0,-1.0,30.22,West,275,16.0,21.0,69,0.00,,,0.00,,2013-02-01 06:11:00,
2013-02-01 00:22:00,7.0,0.0,30.23,West,272,20.0,33.0,71,0.00,,,0.00,,2013-02-01 06:22:00,
2013-02-01 00:32:00,7.0,0.0,30.23,West,272,20.0,33.0,71,0.00,,,0.00,,2013-02-01 06:32:00,
2013-02-01 00:42:00,7.0,0.0,30.23,West,272,20.0,33.0,71,0.00,,,0.00,,2013-02-01 06:42:00,
2013-02-01 00:52:00,7.0,0.0,30.23,West,272,20.0,33.0,71,0.00,,,0.00,,2013-02-01 06:52:00,
2013-02-01 01:01:00,6.0,-3.0,30.25,West,265,17.0,26.0,66,0.00,,,0.00,,2013-02-01 07:01:00,
2013-02-01 01:12:00,6.0,-3.0,30.27,West,268,12.0,24.0,65,0.00,,,0.00,,2013-02-01 07:12:00,
2013-02-01 01:22:00,6.0,-3.0,30.27,West,268,12.0,24.0,65,0.00,,,0.00,,2013-02-01 07:22:00,
2013-02-01 01:32:00,6.0,-4.0,30.27,WNW,294,15.0,30.0,64,0.00,,,0.00,,2013-02-01 07:32:00,
2013-02-01 01:42:00,6.0,-4.0,30.27,WNW,294,15.0,30.0,64,0.00,,,0.00,,2013-02-01 07:42:00,
2013-02-01 01:52:00,6.0,-4.0,30.28,West,275,21.0,38.0,64,0.00,,,0.00,,2013-02-01 07:52:00,
2013-02-01 02:01:00,6.0,-3.0,30.29,WSW,254,10.0,23.0,65,0.00,,,0.00,,2013-02-01 08:01:00,
2013-02-01 02:11:00,6.0,-3.0,30.29,WSW,254,10.0,23.0,65,0.00,,,0.00,,2013-02-01 08:11:00,
2013-02-01 02:21:00,6.0,-3.0,30.29,West,266,11.0,26.0,66,0.00,,,0.00,,2013-02-01 08:21:00,
2013-02-01 02:31:00,6.0,-3.0,30.29,WNW,283,13.0,21.0,66,0.00,,,0.00,,2013-02-01 08:31:00,
2013-02-01 02:42:00,6.0,-3.0,30.29,WNW,283,13.0,21.0,66,0.00,,,0.00,,2013-02-01 08:42:00,
2013-02-01 02:52:00,6.0,-3.0,30.29,WNW,283,13.0,21.0,66,0.00,,,0.00,,2013-02-01 08:52:00,
2013-02-01 03:01:00,5.0,-4.0,30.31,WSW,254,12.0,23.0,65,0.00,,,0.00,,2013-02-01 09:01:00,
2013-02-01 03:11:00,5.0,-4.0,30.31,WSW,254,12.0,23.0,65,0.00,,,0.00,,2013-02-01 09:11:00,
2013-02-01 03:21:00,5.0,-4.0,30.31,West,266,9.0,20.0,66,0.00,,,0.00,,2013-02-01 09:21:00,
2013-02-01 03:32:00,5.0,-4.0,30.31,West,266,9.0,20.0,66,0.00,,,0.00,,2013-02-01 09:32:00,
2013-02-01 03:41:00,5.0,-4.0,30.31,West,266,9.0,20.0,66,0.00,,,0.00,,2013-02-01 09:41:00,
2013-02-01 03:52:00,5.0,-4.0,30.32,WSW,252,18.0,25.0,64,0.00,,,0.00,,2013-02-01 09:52:00,
2013-02-01 04:01:00,5.0,-4.0,30.32,WSW,252,18.0,25.0,64,0.00,,,0.00,,2013-02-01 10:01:00,
2013-02-01 04:11:00,5.0,-4.0,30.32,WSW,252,18.0,25.0,64,0.00,,,0.00,,2013-02-01 10:11:00,
2013-02-01 04:21:00,5.0,-4.0,30.32,WSW,252,18.0,25.0,64,0.00,,,0.00,,2013-02-01 10:21:00,
2013-02-01 04:31:00,5.0,-4.0,30.33,NW,313,6.0,16.0,66,0.00,,,0.00,,2013-02-01 10:31:00,
2013-02-01 04:40:00,5.0,-3.0,30.34,West,278,9.0,14.0,68,0.00,,,0.00,,2013-02-01 10:40:00,
2013-02-01 04:43:00,5.0,-4.0,30.33,NW,313,6.0,16.0,66,0.00,,,0.00,,2013-02-01 10:43:00,
2013-02-01 04:53:00,5.0,-4.0,30.33,WNW,295,10.0,18.0,67,0.00,,,0.00,,2013-02-01 10:53:00,
2013-02-01 05:02:00,5.0,-3.0,30.34,West,278,9.0,14.0,68,0.00,,,0.00,,2013-02-01 11:02:00,
2013-02-01 05:11:00,5.0,-3.0,30.34,West,278,9.0,14.0,68,0.00,,,0.00,,2013-02-01 11:11:00,
2013-02-01 05:22:00,5.0,-3.0,30.34,West,278,9.0,14.0,68,0.00,,,0.00,,2013-02-01 11:22:00,
2013-02-01 05:32:00,5.0,-3.0,30.34,West,278,9.0,14.0,68,0.00,,,0.00,,2013-02-01 11:32:00,
2013-02-01 05:53:00,5.0,-4.0,30.35,WSW,254,7.0,16.0,66,0.00,,,0.00,,2013-02-01 11:53:00,
2013-02-01 06:02:00,5.0,-4.0,30.35,West,272,9.0,20.0,66,0.00,,,0.00,,2013-02-01 12:02:00,
2013-02-01 06:12:00,5.0,-4.0,30.35,West,272,9.0,20.0,66,0.00,,,0.00,,2013-02-01 12:12:00,
2013-02-01 06:22:00,5.0,-3.0,30.36,West,268,7.0,15.0,68,0.00,,,0.00,,2013-02-01 12:22:00,
2013-02-01 06:32:00,5.0,-3.0,30.36,West,268,7.0,15.0,68,0.00,,,0.00,,2013-02-01 12:32:00,
2013-02-01 06:42:00,5.0,-3.0,30.36,West,268,7.0,15.0,68,0.00,,,0.00,,2013-02-01 12:42:00,
2013-02-01 06:52:00,5.0,-3.0,30.36,West,268,7.0,15.0,68,0.00,,,0.00,,2013-02-01 12:52:00,
2013-02-01 07:02:00,4.0,-5.0,30.38,West,268,10.0,15.0,65,0.00,,,0.00,,2013-02-01 13:02:00,
2013-02-01 07:11:00,4.0,-5.0,30.38,West,268,10.0,15.0,65,0.00,,,0.00,,2013-02-01 13:11:00,
2013-02-01 07:22:00,4.0,-5.0,30.38,West,276,7.0,15.0,66,0.00,,,0.00,,2013-02-01 13:22:00,
2013-02-01 07:32:00,4.0,-5.0,30.38,West,277,7.0,10.0,66,0.00,,,0.00,,2013-02-01 13:32:00,
2013-02-01 07:42:00,4.0,-5.0,30.38,West,277,7.0,10.0,66,0.00,,,0.00,,2013-02-01 13:42:00,
2013-02-01 07:53:00,4.0,-4.0,30.39,West,273,8.0,10.0,67,0.00,,,0.00,,2013-02-01 13:53:00,
2013-02-01 08:03:00,4.0,-4.0,30.39,West,270,11.0,15.0,67,0.00,,,0.00,,2013-02-01 14:03:00,
2013-02-01 08:11:00,5.0,-4.0,30.41,WSW,258,12.0,15.0,66,0.00,,,0.00,,2013-02-01 14:11:00,
2013-02-01 08:21:00,5.0,-4.0,30.41,WSW,258,12.0,15.0,66,0.00,,,0.00,,2013-02-01 14:21:00,
2013-02-01 08:32:00,5.0,-4.0,30.41,WSW,258,12.0,15.0,66,0.00,,,0.00,,2013-02-01 14:32:00,
2013-02-01 08:42:00,5.0,-4.0,30.41,WSW,258,12.0,15.0,66,0.00,,,0.00,,2013-02-01 14:42:00,
2013-02-01 08:53:00,6.0,-3.0,30.41,West,278,5.0,16.0,65,0.00,,,0.00,,2013-02-01 14:53:00,
2013-02-01 09:02:00,6.0,-3.0,30.41,West,278,5.0,16.0,65,0.00,,,0.00,,2013-02-01 15:02:00,
2013-02-01 09:12:00,7.0,-3.0,30.42,WNW,283,10.0,18.0,64,0.00,,,0.00,,2013-02-01 15:12:00,
2013-02-01 09:21:00,7.0,-3.0,30.42,WNW,283,10.0,18.0,64,0.00,,,0.00,,2013-02-01 15:21:00,
2013-02-01 09:32:00,8.0,-1.0,30.42,WSW,239,12.0,20.0,65,0.00,,,0.00,,2013-02-01 15:32:00,
2013-02-01 09:42:00,8.0,-1.0,30.42,WSW,239,12.0,20.0,65,0.00,,,0.00,,2013-02-01 15:42:00,
2013-02-01 09:52:00,8.0,-2.0,30.43,West,280,9.0,16.0,63,0.00,,,0.00,,2013-02-01 15:52:00,
2013-02-01 10:02:00,8.0,-2.0,30.43,West,280,9.0,16.0,63,0.00,,,0.00,,2013-02-01 16:02:00,
2013-02-01 10:11:00,9.0,-1.0,30.43,WNW,285,8.0,14.0,64,0.00,,,0.00,,2013-02-01 16:11:00,
2013-02-01 10:22:00,9.0,-1.0,30.43,WNW,285,8.0,14.0,64,0.00,,,0.00,,2013-02-01 16:22:00,
2013-02-01 10:33:00,9.0,-1.0,30.43,WNW,285,8.0,14.0,64,0.00,,,0.00,,2013-02-01 16:33:00,
2013-02-01 10:43:00,11.0,1.0,30.44,WSW,254,3.0,18.0,64,0.00,,,0.00,,2013-02-01 16:43:00,
2013-02-01 10:52:00,11.0,1.0,30.44,WSW,254,3.0,18.0,64,0.00,,,0.00,,2013-02-01 16:52:00,
2013-02-01 11:00:00,12.0,1.0,30.44,WSW,244,4.0,18.0,61,0.00,,,0.00,,2013-02-01 17:00:00,
2013-02-01 11:02:00,11.0,0.0,30.44,West,260,9.0,15.0,61,0.00,,,0.00,,2013-02-01 17:02:00,
2013-02-01 11:12:00,12.0,1.0,30.44,WSW,244,4.0,18.0,61,0.00,,,0.00,,2013-02-01 17:12:00,
2013-02-01 11:22:00,12.0,1.0,30.44,WSW,244,4.0,18.0,61,0.00,,,0.00,,2013-02-01 17:22:00,
2013-02-01 11:32:00,12.0,1.0,30.44,WSW,244,4.0,18.0,61,0.00,,,0.00,,2013-02-01 17:32:00,
2013-02-01 11:42:00,12.0,1.0,30.44,WSW,244,4.0,18.0,61,0.00,,,0.00,,2013-02-01 17:42:00,
2013-02-01 11:53:00,12.0,1.0,30.44,WSW,244,4.0,18.0,61,0.00,,,0.00,,2013-02-01 17:53:00,
2013-02-01 12:23:00,14.0,2.0,30.41,WNW,292,8.0,16.0,58,0.00,,,0.00,,2013-02-01 18:23:00,
2013-02-01 12:32:00,14.0,2.0,30.40,SSW,205,6.0,15.0,57,0.00,,,0.00,,2013-02-01 18:32:00,
2013-02-01 12:42:00,14.0,2.0,30.40,SSW,205,6.0,15.0,57,0.00,,,0.00,,2013-02-01 18:42:00,
2013-02-01 12:53:00,15.0,3.0,30.40,SSW,193,3.0,16.0,57,0.00,,,0.00,,2013-02-01 18:53:00,
2013-02-01 13:02:00,15.0,3.0,30.40,SSW,193,3.0,16.0,57,0.00,,,0.00,,2013-02-01 19:02:00,
2013-02-01 13:11:00,15.0,3.0,30.40,SSW,193,3.0,16.0,57,0.00,,,0.00,,2013-02-01 19:11:00,
2013-02-01 13:21:00,16.0,3.0,30.39,South,172,5.0,15.0,56,0.00,,,0.00,,2013-02-01 19:21:00,
2013-02-01 13:32:00,17.0,4.0,30.38,WSW,240,5.0,15.0,56,0.00,,,0.00,,2013-02-01 19:32:00,
2013-02-01 13:40:00,17.0,3.0,30.37,West,264,7.0,14.0,54,0.00,,,0.00,,2013-02-01 19:40:00,
2013-02-01 13:42:00,17.0,4.0,30.38,WSW,240,5.0,15.0,56,0.00,,,0.00,,2013-02-01 19:42:00,
2013-02-01 13:52:00,17.0,4.0,30.37,WSW,242,6.0,16.0,55,0.00,,,0.00,,2013-02-01 19:52:00,
2013-02-01 14:02:00,17.0,3.0,30.37,West,264,7.0,14.0,54,0.00,,,0.00,,2013-02-01 20:02:00,
2013-02-01 14:11:00,17.0,3.0,30.37,West,264,7.0,14.0,54,0.00,,,0.00,,2013-02-01 20:11:00,
2013-02-01 14:21:00,17.0,3.0,30.37,West,264,7.0,14.0,54,0.00,,,0.00,,2013-02-01 20:21:00,
2013-02-01 14:31:00,17.0,3.0,30.37,West,264,7.0,14.0,54,0.00,,,0.00,,2013-02-01 20:31:00,
2013-02-01 14:40:00,18.0,5.0,30.35,West,267,3.0,12.0,57,0.00,,,0.00,,2013-02-01 20:40:00,
2013-02-01 14:52:00,17.0,4.0,30.36,SSE,166,1.0,15.0,56,0.00,,,0.00,,2013-02-01 20:52:00,
2013-02-01 15:02:00,18.0,5.0,30.35,West,267,3.0,12.0,57,0.00,,,0.00,,2013-02-01 21:02:00,
2013-02-01 15:12:00,18.0,5.0,30.35,West,267,3.0,12.0,57,0.00,,,0.00,,2013-02-01 21:12:00,
2013-02-01 15:21:00,18.0,5.0,30.35,West,267,3.0,12.0,57,0.00,,,0.00,,2013-02-01 21:21:00,
2013-02-01 15:32:00,18.0,5.0,30.35,West,267,3.0,12.0,57,0.00,,,0.00,,2013-02-01 21:32:00,
2013-02-01 15:52:00,18.0,5.0,30.35,SW,229,6.0,14.0,55,0.00,,,0.00,,2013-02-01 21:52:00,
2013-02-01 16:02:00,18.0,5.0,30.35,South,173,3.0,10.0,55,0.00,,,0.00,,2013-02-01 22:02:00,
2013-02-01 16:11:00,18.0,5.0,30.35,South,173,3.0,10.0,55,0.00,,,0.00,,2013-02-01 22:11:00,
2013-02-01 16:21:00,18.0,5.0,30.34,SW,234,3.0,20.0,55,0.00,,,0.00,,2013-02-01 22:21:00,
2013-02-01 16:32:00,18.0,5.0,30.34,WSW,242,4.0,9.0,55,0.00,,,0.00,,2013-02-01 22:32:00,
2013-02-01 16:42:00,18.0,5.0,30.34,WSW,242,4.0,9.0,55,0.00,,,0.00,,2013-02-01 22:42:00,
2013-02-01 16:52:00,18.0,5.0,30.34,WSW,242,4.0,9.0,55,0.00,,,0.00,,2013-02-01 22:52:00,
2013-02-01 17:01:00,18.0,4.0,30.33,South,180,3.0,8.0,54,0.00,,,0.00,,2013-02-01 23:01:00,
2013-02-01 17:11:00,18.0,4.0,30.33,South,180,3.0,8.0,54,0.00,,,0.00,,2013-02-01 23:11:00,
2013-02-01 17:21:00,18.0,5.0,30.32,SW,224,3.0,8.0,56,0.00,,,0.00,,2013-02-01 23:21:00,
2013-02-01 17:31:00,18.0,5.0,30.31,West,275,2.0,6.0,57,0.00,,,0.00,,2013-02-01 23:31:00,
2013-02-01 17:41:00,18.0,5.0,30.31,West,275,2.0,6.0,57,0.00,,,0.00,,2013-02-01 23:41:00,
2013-02-01 17:52:00,18.0,6.0,30.32,West,278,1.0,5.0,59,0.00,,,0.00,,2013-02-01 23:52:00,
2013-02-01 18:02:00,17.0,6.0,30.32,ESE,121,1.0,5.0,60,0.00,,,0.00,,2013-02-02 00:02:00,
2013-02-01 18:11:00,17.0,6.0,30.32,ESE,121,1.0,5.0,60,0.00,,,0.00,,2013-02-02 00:11:00,
2013-02-01 18:21:00,18.0,6.0,30.32,WSW,252,1.0,6.0,60,0.00,,,0.00,,2013-02-02 00:21:00,
2013-02-01 18:32:00,18.0,6.0,30.32,WSW,252,1.0,6.0,60,0.00,,,0.00,,2013-02-02 00:32:00,
2013-02-01 18:40:00,18.0,7.0,30.32,South,180,2.0,8.0,61,0.00,,,0.00,,2013-02-02 00:40:00,
2013-02-01 18:42:00,18.0,6.0,30.32,WSW,252,1.0,6.0,60,0.00,,,0.00,,2013-02-02 00:42:00,
2013-02-01 18:52:00,18.0,7.0,30.33,South,171,2.0,6.0,61,0.00,,,0.00,,2013-02-02 00:52:00,
2013-02-01 19:02:00,18.0,7.0,30.32,South,180,2.0,8.0,61,0.00,,,0.00,,2013-02-02 01:02:00,
2013-02-01 19:11:00,18.0,7.0,30.32,South,180,2.0,8.0,61,0.00,,,0.00,,2013-02-02 01:11:00,
2013-02-01 19:21:00,18.0,7.0,30.32,South,180,2.0,8.0,61,0.00,,,0.00,,2013-02-02 01:21:00,
2013-02-01 19:32:00,18.0,7.0,30.32,South,180,2.0,8.0,61,0.00,,,0.00,,2013-02-02 01:32:00,
2013-02-01 20:32:00,20.0,8.0,30.30,South,171,3.0,6.0,59,0.00,,,0.00,,2013-02-02 02:32:00,
2013-02-01 20:42:00,20.0,8.0,30.30,South,171,3.0,6.0,59,0.00,,,0.00,,2013-02-02 02:42:00,
2013-02-01 20:52:00,20.0,8.0,30.29,South,173,6.0,10.0,60,0.00,,,0.00,,2013-02-02 02:52:00,
2013-02-01 21:02:00,20.0,8.0,30.29,South,173,6.0,10.0,60,0.00,,,0.00,,2013-02-02 03:02:00,
2013-02-01 21:11:00,20.0,8.0,30.29,South,173,6.0,10.0,60,0.00,,,0.00,,2013-02-02 03:11:00,
2013-02-01 21:22:00,20.0,8.0,30.29,South,173,6.0,10.0,60,0.00,,,0.00,,2013-02-02 03:22:00,
2013-02-01 21:32:00,20.0,9.0,30.27,SSE,161,7.0,9.0,62,0.00,,,0.00,,2013-02-02 03:32:00,
2013-02-01 21:42:00,20.0,10.0,30.26,SW,222,6.0,10.0,64,0.00,,,0.00,,2013-02-02 03:42:00,
2013-02-01 21:52:00,20.0,10.0,30.26,SW,222,6.0,10.0,64,0.00,,,0.00,,2013-02-02 03:52:00,
2013-02-01 22:01:00,20.0,10.0,30.26,South,171,2.0,14.0,64,0.00,,,0.00,,2013-02-02 04:01:00,
2013-02-01 22:10:00,20.0,10.0,30.24,SSE,154,5.0,10.0,64,0.00,,,0.00,,2013-02-02 04:10:00,
2013-02-01 22:11:00,20.0,10.0,30.26,South,171,2.0,14.0,64,0.00,,,0.00,,2013-02-02 04:11:00,
2013-02-01 22:21:00,20.0,10.0,30.25,SSE,150,7.0,14.0,64,0.00,,,0.00,,2013-02-02 04:21:00,
2013-02-01 22:32:00,20.0,10.0,30.24,SSE,154,5.0,10.0,64,0.00,,,0.00,,2013-02-02 04:32:00,
2013-02-01 22:42:00,20.0,10.0,30.24,SSE,154,5.0,10.0,64,0.00,,,0.00,,2013-02-02 04:42:00,
2013-02-01 22:52:00,20.0,10.0,30.24,SSE,154,5.0,10.0,64,0.00,,,0.00,,2013-02-02 04:52:00,
2013-02-01 23:03:00,20.0,10.0,30.24,SSE,154,5.0,10.0,64,0.00,,,0.00,,2013-02-02 05:03:00,
2013-02-01 23:22:00,20.0,10.0,30.23,SE,142,6.0,14.0,64,0.00,,,0.00,,2013-02-02 05:22:00,
2013-02-01 23:33:00,20.0,10.0,30.23,South,184,8.0,14.0,64,0.00,,,0.00,,2013-02-02 05:33:00,
2013-02-01 23:42:00,20.0,10.0,30.23,South,184,8.0,14.0,64,0.00,,,0.00,,2013-02-02 05:42:00,
2013-02-01 23:52:00,20.0,10.0,30.22,SSE,167,11.0,16.0,64,0.00,,,0.00,,2013-02-02 05:52:00,